This demonstration page uses our WeatherBlox Daily Observations layout. Learn more.

Left ArrowRight Arrow

41.55636, -103.73856

Hourly Observations for July 30, 2018

Temp ( °F °C ) Dew Point ( °F °C ) Humidity (%) Winds ( mph kmh ) Pressure ( in mb ) Visibility ( mi km ) Precip ( " mm )
12:58 am 00:58 Mostly Cloudy 55 12.5 52 11.1 91 91 WNW 10 17 30.24 1024 10 16 N/A
1:58 am 01:58 Mostly Cloudy 54 12.4 51 10.7 89 89 WNW 9 15 30.23 1024 10 16 N/A
2:58 am 02:58 Partly Cloudy 54 12.2 50 10.2 88 88 NW 9 15 30.23 1024 10 16 N/A
3:58 am 03:58 Clear 51 10.8 49 9.3 91 91 NW 8 13 30.22 1023 10 16 N/A
4:58 am 04:58 Mostly Clear 49 9.7 47 8.6 93 93 NW 8 13 30.23 1024 10 16 N/A
5:58 am 05:58 Sunny 49 9.5 47 8.6 94 94 NNW 8 13 30.24 1024 10 16 N/A
6:58 am 06:58 Sunny 53 11.6 51 10.7 94 94 N 8 13 30.24 1024 10 16 N/A
7:58 am 07:58 Sunny 58 14.7 53 11.6 82 82 N 12 19 30.26 1025 10 16 N/A
8:58 am 08:58 Sunny 62 16.5 52 11.2 71 71 N 12 19 30.27 1025 10 16 0.01 0.25
9:58 am 09:58 Sunny 64 17.8 51 10.5 63 63 N 12 19 30.27 1025 10 16 N/A
10:58 am 10:58 Sunny 67 19.5 49 9.3 52 52 NNE 13 20 30.26 1025 10 16 N/A
11:58 am 11:58 Mostly Cloudy 66 19.1 48 9.1 52 52 NNE 12 19 30.26 1025 10 16 N/A
12:58 pm 12:58 Mostly Cloudy 68 20 50 9.9 52 52 N 15 24 30.25 1024 10 16 N/A
1:58 pm 13:58 Partly Cloudy 71 21.4 49 9.6 47 47 NNE 17 28 30.23 1024 10 16 N/A
2:58 pm 14:58 Mostly Sunny 72 22.2 47 8.6 42 42 N 14 22 30.23 1024 10 16 N/A
3:58 pm 15:58 Mostly Sunny 72 22.2 47 8.5 42 42 NNE 12 19 30.23 1024 10 16 N/A
4:58 pm 16:58 Sunny 72 22.2 45 7.2 38 38 NNE 12 19 30.22 1023 10 16 N/A
5:58 pm 17:58 Sunny 71 21.5 46 7.7 41 41 NE 10 17 30.21 1023 10 16 N/A
6:58 pm 18:58 Sunny 68 19.9 45 7.3 44 44 ENE 9 15 30.21 1023 10 16 N/A
7:58 pm 19:58 Sunny 61 15.9 48 9 64 64 E 9 15 30.23 1024 10 16 N/A
8:58 pm 20:58 Clear 58 14.6 47 8.5 67 67 ESE 9 15 30.23 1024 10 16 N/A
9:58 pm 21:58 Clear 57 13.7 49 9.3 75 75 ESE 12 19 30.25 1024 10 16 N/A
10:58 pm 22:58 Clear 54 12 49 9.3 84 84 SW 6 9 30.25 1024 10 16 N/A
11:58 pm 23:58 Clear 53 11.7 48 8.9 83 83 SSW 6 9 30.24 1024 10 16 N/A

Powered by AerisWeather